Total_Precipitation_Accumulation
0.65 0.80 0.98 1.20 1.45 1.64 1.69 1.79 1.93 2.13 2.34 2.64 2.98 3.14 3.23 3.46 3.62 3.75 3.92 3.89 3.85 3.95 3.99 3.87 3.76 3.61 3.48 3.30 3.18 2.98 2.81 2.59 2.49 2.36 2.04 1.66 1.42 1.41 1.34 1.36 1.47 1.47 1.39
0.79 1.06 1.34 1.68 1.82 1.86 1.89 1.96 2.06 2.32 2.59 2.93 3.37 3.81 4.02 4.19 4.23 4.30 4.50 4.62 4.64 4.80 4.91 4.81 4.62 4.39 4.04 3.61 3.28 3.08 2.93 2.68 2.62 2.55 2.45 1.95 1.57 1.30 1.07 1.12 1.18 1.24 1.31
1.09 1.32 1.55 1.66 1.81 1.89 1.99 2.09 2.37 2.80 3.23 3.68 4.17 4.61 4.91 4.98 4.92 4.64 4.73 4.87 4.84 4.92 5.10 5.08 4.85 4.49 3.94 3.44 3.27 3.17 3.03 2.85 2.73 2.57 2.62 2.25 1.86 1.53 1.16 0.97 0.91 0.96 0.99
1.14 1.28 1.49 1.69 1.80 1.91 2.09 2.20 2.52 3.07 3.55 3.99 4.63 5.13 5.43 5.61 5.71 5.47 5.16 5.01 4.84 4.72 4.64 4.53 4.16 3.72 3.39 3.14 3.04 3.00 2.81 2.79 2.69 2.59 2.29 2.06 1.83 1.64 1.35 1.08 0.92 0.87 0.85
0.96 1.11 1.24 1.54 1.81 1.90 1.93 2.01 2.41 3.01 3.73 4.41 4.92 5.37 5.73 5.88 5.86 5.50 5.11 4.71 4.36 3.95 3.62 3.30 3.05 2.92 2.73 2.53 2.45 2.43 2.38 2.26 2.18 2.16 2.10 2.02 1.81 1.54 1.35 1.19 1.03 0.98 0.90
0.87 0.90 1.01 1.24 1.56 1.63 1.76 1.95 2.28 2.96 3.70 4.29 4.80 5.15 5.48 5.51 5.24 4.82 4.36 4.06 3.68 3.23 2.81 2.59 2.38 2.25 2.08 1.87 1.75 1.74 1.79 1.86 1.93 1.98 1.94 1.88 1.83 1.68 1.58 1.43 1.23 1.16 1.10
0.82 0.85 0.91 1.05 1.28 1.42 1.68 2.01 2.39 2.88 3.30 3.80 4.24 4.47 4.66 4.71 4.63 4.39 4.03 3.76 3.36 2.93 2.51 2.14 1.94 1.72 1.54 1.45 1.40 1.37 1.37 1.44 1.55 1.69 1.74 1.71 1.67 1.63 1.63 1.62 1.50 1.36 1.24
0.89 1.01 1.11 1.19 1.30 1.41 1.54 1.85 2.17 2.54 2.75 2.97 3.30 3.51 3.65 3.70 3.62 3.45 3.19 2.91 2.62 2.36 2.04 1.64 1.35 1.17 1.06 0.99 1.00 1.04 1.10 1.13 1.18 1.28 1.40 1.43 1.42 1.45 1.50 1.56 1.59 1.60 1.46
0.90 1.04 1.16 1.22 1.26 1.30 1.43 1.55 1.68 1.91 2.14 2.35 2.48 2.57 2.62 2.56 2.50 2.36 2.14 1.93 1.75 1.56 1.34 1.12 0.97 0.89 0.86 0.81 0.76 0.78 0.80 0.85 0.91 0.98 1.09 1.21 1.28 1.30 1.35 1.43 1.48 1.51 1.51
0.96 1.06 1.09 1.12 1.12 1.08 1.15 1.24 1.35 1.47 1.60 1.71 1.74 1.68 1.67 1.68 1.56 1.43 1.34 1.19 1.05 0.94 0.86 0.77 0.74 0.71 0.66 0.64 0.65 0.63 0.62 0.71 0.75 0.76 0.84 0.96 1.08 1.17 1.24 1.32 1.35 1.32 1.30
0.95 0.97 0.97 0.97 0.95 0.87 0.89 0.95 1.01 1.14 1.21 1.23 1.23 1.14 1.08 1.01 0.94 0.85 0.85 0.78 0.71 0.68 0.64 0.59 0.57 0.57 0.58 0.57 0.55 0.56 0.54 0.59 0.70 0.78 0.83 0.88 0.93 1.00 1.04 1.07 1.12 1.19 1.23
0.97 0.89 0.83 0.79 0.76 0.72 0.71 0.74 0.81 0.86 0.87 0.85 0.81 0.77 0.72 0.67 0.66 0.63 0.62 0.63 0.60 0.56 0.54 0.51 0.51 0.51 0.54 0.55 0.54 0.53 0.54 0.55 0.61 0.67 0.71 0.72 0.72 0.79 0.86 0.91 0.93 1.00 1.06
0.97 0.92 0.88 0.79 0.75 0.77 0.73 0.66 0.67 0.70 0.69 0.69 0.69 0.63 0.61 0.60 0.59 0.59 0.57 0.57 0.56 0.52 0.49 0.48 0.48 0.49 0.50 0.49 0.51 0.51 0.51 0.49 0.53 0.54 0.55 0.58 0.60 0.62 0.64 0.67 0.72 0.77 0.82
0.88 0.92 0.97 0.94 0.85 0.78 0.77 0.70 0.65 0.65 0.68 0.67 0.64 0.55 0.51 0.51 0.52 0.51 0.51 0.50 0.49 0.50 0.51 0.50 0.47 0.44 0.41 0.37 0.35 0.35 0.36 0.34 0.36 0.36 0.38 0.45 0.52 0.52 0.52 0.51 0.51 0.55 0.65
0.99 0.96 0.97 0.95 0.89 0.81 0.76 0.71 0.68 0.67 0.72 0.76 0.76 0.67 0.56 0.52 0.50 0.50 0.51 0.50 0.46 0.43 0.41 0.36 0.33 0.27 0.22 0.20 0.18 0.21 0.23 0.24 0.25 0.25 0.25 0.28 0.37 0.45 0.45 0.43 0.46 0.52 0.58
1.22 1.18 1.12 1.08 1.05 0.96 0.86 0.78 0.75 0.75 0.80 0.87 0.92 0.90 0.82 0.72 0.66 0.58 0.53 0.48 0.44 0.36 0.27 0.22 0.20 0.18 0.15 0.14 0.14 0.15 0.21 0.23 0.23 0.24 0.24 0.25 0.28 0.32 0.34 0.40 0.49 0.58 0.58
1.46 1.40 1.35 1.28 1.22 1.14 1.06 1.00 0.93 0.87 0.87 0.91 0.93 0.90 0.83 0.74 0.64 0.53 0.45 0.41 0.36 0.32 0.28 0.22 0.17 0.15 0.13 0.12 0.12 0.14 0.20 0.24 0.25 0.26 0.26 0.24 0.24 0.28 0.29 0.34 0.41 0.46 0.49
1.42 1.41 1.38 1.36 1.33 1.23 1.15 1.10 1.03 0.96 0.92 0.94 0.90 0.83 0.72 0.63 0.53 0.46 0.42 0.38 0.35 0.34 0.32 0.27 0.23 0.19 0.13 0.10 0.10 0.11 0.18 0.23 0.24 0.25 0.27 0.27 0.29 0.29 0.31 0.31 0.33 0.39 0.46
1.49 1.45 1.36 1.28 1.25 1.20 1.15 1.09 1.06 0.99 0.92 0.89 0.79 0.65 0.55 0.50 0.47 0.43 0.41 0.38 0.36 0.33 0.29 0.26 0.24 0.24 0.18 0.10 0.09 0.11 0.20 0.26 0.24 0.22 0.22 0.25 0.28 0.30 0.30 0.33 0.40 0.45 0.49
1.25 1.18 1.09 1.02 1.01 1.03 1.01 0.97 0.93 0.86 0.79 0.66 0.54 0.47 0.43 0.42 0.41 0.40 0.38 0.35 0.34 0.33 0.26 0.22 0.21 0.21 0.19 0.11 0.11 0.14 0.20 0.27 0.24 0.23 0.23 0.22 0.23 0.24 0.24 0.32 0.42 0.51 0.52
0.90 0.85 0.84 0.91 0.95 0.91 0.82 0.78 0.75 0.69 0.58 0.48 0.43 0.39 0.36 0.32 0.33 0.34 0.34 0.34 0.33 0.34 0.31 0.28 0.24 0.20 0.14 0.09 0.09 0.11 0.16 0.22 0.24 0.26 0.30 0.28 0.21 0.19 0.22 0.29 0.37 0.44 0.43
0.64 0.64 0.68 0.76 0.77 0.69 0.65 0.67 0.62 0.53 0.43 0.45 0.45 0.41 0.35 0.28 0.30 0.38 0.38 0.35 0.39 0.42 0.40 0.37 0.33 0.24 0.17 0.09 0.07 0.09 0.11 0.14 0.23 0.32 0.31 0.29 0.21 0.20 0.24 0.29 0.36 0.39 0.45
0.48 0.53 0.55 0.59 0.62 0.60 0.61 0.65 0.60 0.48 0.45 0.53 0.53 0.43 0.34 0.35 0.35 0.37 0.37 0.35 0.36 0.34 0.32 0.31 0.31 0.26 0.20 0.14 0.07 0.08 0.10 0.12 0.17 0.24 0.22 0.21 0.23 0.26 0.37 0.38 0.37 0.45 0.61
0.40 0.44 0.45 0.46 0.50 0.49 0.53 0.56 0.50 0.47 0.56 0.64 0.55 0.41 0.36 0.35 0.34 0.32 0.28 0.26 0.28 0.27 0.25 0.23 0.21 0.23 0.23 0.16 0.12 0.12 0.13 0.15 0.19 0.22 0.24 0.30 0.35 0.40 0.48 0.53 0.60 0.64 0.66
0.38 0.40 0.43 0.42 0.37 0.37 0.41 0.39 0.42 0.51 0.67 0.64 0.51 0.41 0.34 0.32 0.31 0.26 0.18 0.14 0.13 0.10 0.14 0.16 0.14 0.17 0.17 0.13 0.14 0.15 0.13 0.14 0.16 0.19 0.31 0.48 0.52 0.57 0.60 0.64 0.68 0.71 0.65
0.32 0.38 0.39 0.35 0.35 0.36 0.36 0.35 0.39 0.45 0.57 0.57 0.43 0.34 0.30 0.26 0.22 0.20 0.19 0.10 0.06 0.04 0.04 0.05 0.05 0.06 0.09 0.09 0.11 0.13 0.14 0.15 0.19 0.25 0.43 0.51 0.54 0.56 0.55 0.55 0.59 0.64 0.62